Miscellaneous Local Product
Issued by NWS Hastings, NE

Home | Current Version | Previous Version | Text Only | Print | Product List | Glossary Off
Versions: 1 2 3 4 5 6 7 8 9 10 11 12 13 14 15 16 17 18 19 20 21 22 23 24 25 26 27 28 29 30 31 32 33 34 35 36 37 38 39 40 41 42 43 44 45 46 47 48 49 50

000
AXUS43 KGID 211102
MISGRI

GID CWA HOURLY WEATHER ROUNDUP
NATIONAL WEATHER SERVICE HASTINGS NE
600 AM CDT FRI JUL 21 2017

NOTE: "FAIR" INDICATES FEW OR NO CLOUDS BELOW 12,000 FEET WITH NO
SIGNIFICANT WEATHER AND/OR OBSTRUCTIONS TO VISIBILITY.

...SOUTH CENTRAL NEBRASKA...

CITY           SKY/WX    TMP DP  RH WIND       PRES   REMARKS
GRAND ISLAND   CLEAR     78  64  61 S22G32    29.82F
HASTINGS       CLEAR     77  61  57 S10       29.86F
KEARNEY        CLEAR     75  62  64 S16       29.84F
ORD            CLEAR     75  61  61 S7        29.79R
YORK           PTCLDY    75  66  73 S10       29.84F
AURORA         CLEAR     76  66  70 S14G21    29.83F
LEXINGTON      CLEAR     74  61  63 S9        29.84F
HOLDREGE       CLEAR     73  59  61 S15       29.86S
HEBRON         MOCLDY    80  66  63 S10       29.88S

...NEBRASKA PANHANDLE...

CITY           SKY/WX    TMP DP  RH WIND       PRES   REMARKS
CHADRON        CLOUDY    67  61  81 N5        29.92S
ALLIANCE       PTCLDY    62  59  90 W7        29.94R
SCOTTSBLUFF    PTCLDY    65  59  81 CALM      29.96S
SIDNEY         PTCLDY    67  55  65 NW10      30.01R

...WESTERN AND NORTH CENTRAL NEBRASKA...

CITY           SKY/WX    TMP DP  RH WIND       PRES   REMARKS
VALENTINE      CLOUDY    73  65  75 NE12      29.87F
AINSWORTH      CLOUDY    73  73 100 N6        29.87R FOG
ONEILL         CLOUDY    74  72  93 E6        29.83S
BROKEN BOW     CLEAR     70  62  76 SW7       29.84R
IMPERIAL       CLEAR     72  66  81 NW3       29.91R
NORTH PLATTE   PTCLDY    69  67  93 CALM      29.85S
MCCOOK         CLEAR     72  60  66 SW10      29.86R

...EASTERN NEBRASKA...

CITY           SKY/WX    TMP DP  RH WIND       PRES   REMARKS
NORFOLK        CLOUDY    80  65  59 E9        29.81F
SO SIOUX CITY  CLOUDY    75  73  93 E9        29.84F
TEKAMAH        PTCLDY    79  69  71 SE8       29.83S
COLUMBUS       CLEAR     79  66  64 S14       29.82F
ALBION         CLEAR     77  66  67 S8        29.80S
OMAHA EPPLEY   CLOUDY    83  70  64 S8        29.84F
OFFUTT AFB     CLEAR     80  71  75 SE8       29.84F
MILLARD        PTCLDY    81  73  76 CALM      29.85S
LINCOLN        CLEAR     80  68  66 S13       29.84F
NEBRASKA CITY  CLEAR     78  74  89 SW9       29.87S
BEATRICE       CLEAR     80  69  68 S8        29.88S
FALLS CITY     PTCLDY    79  72  79 S7        29.88S

...NORTHERN KANSAS...

CITY           SKY/WX    TMP DP  RH WIND       PRES   REMARKS
GOODLAND       CLEAR     74  55  51 SW9       29.94S
HILL CITY      CLEAR     78  59  51 S9        29.88F
NORTON         SUNNY     70  54  56 S6        29.87S
PHILLIPSBURG   CLEAR     79  59  50 S6        29.87S
SMITH CENTER   CLEAR     75  61  60 S6        29.88S
HAYS           CLEAR     78  63  59 S8        29.91S
RUSSELL        CLEAR     79  63  57 S16       29.89S
CONCORDIA      PTCLDY    80  66  62 S18       29.89S
SALINA         CLEAR     82  66  58 S13       29.91R
TOPEKA         CLEAR     80  73  79 VRB3      29.92R



USA.gov is the U.S. government's official web portal to all federal, state and local government web resources and services.